Weather Roundup
Issued by NWS

Home | Current Version | Previous Version | Text Only | Print | Product List | Glossary On
Versions: 1 2 3 4 5 6 7 8 9 10 11 12 13 14 15 16 17 18 19 20 21 22 23 24 25 26 27 28 29 30 31 32 33 34 35 36 37 38 39 40 41 42 43 44 45 46 47 48 49 50
000
NZUS93 KARX 040710
HRRWXR

CURRENT HOURLY OBSERVATIONS ACROSS
MUCH OF THE UPPER MISSISSIPPI VALLEY
NATIONAL WEATHER SERVICE LA CROSSE WI
200 AM CDT SAT JUL 04 2015


...SOUTHEAST MINNESOTA...


CITY           SKY/WX    TMP DP  RH WIND       PRES   REMARKS
ROCHESTER      CLEAR     60  55  83 SW5       29.96S
ROCHESTER/MAYO FAIR      65  55  71 CALM      29.96R
WINONA         CLEAR     61  59  94 CALM      29.94S
AUSTIN         CLEAR     61  55  82 CALM      29.96S
ALBERT LEA     CLEAR     63  55  77 SW3       29.96S
DODGE CENTER   CLEAR     61  55  82 SW3       29.96S
PRESTON        CLEAR     59  54  82 SW5       29.97S
OWATONNA       CLEAR     63  57  82 CALM      29.95S
FARIBAULT      PTCLDY    61  57  88 CALM      29.95S
$$

...ELSEWHERE IN MINNESOTA...


CITY           SKY/WX    TMP DP  RH WIND       PRES   REMARKS
MINNEAPOLIS    MOCLDY    70  60  70 VRB3      29.92S
INTNL FALLS    CLEAR     51  50  96 CALM      29.94R
DULUTH         CLEAR     61  54  77 NE3       29.93S
RED WING       CLEAR     61  57  88 CALM      29.92S
REDWOOD FALLS  CLEAR     65  61  87 SW5       29.93S
MANKATO        CLEAR     64  57  77 S6        29.94S
WORTHINGTON    CLEAR     63  57  82 SW7       29.98S
FAIRMONT       CLEAR     63  55  77 CALM      29.95F
$$

...SOUTHWEST WISCONSIN...


CITY           SKY/WX    TMP DP  RH WIND       PRES   REMARKS
LA CROSSE      CLEAR     64  61  90 S6        29.93S
PRAIRIE DU CHI CLEAR     58  56  92 CALM      29.95F
BOSCOBEL       PTCLDY    56  54  93 CALM      29.96S FOG
LONE ROCK      CLEAR     56  54  93 CALM      29.96S
PLATTEVILLE    CLEAR     60  56  85 S5        29.97S
FORT MC COY    PTCLDY    55  53  95 CALM      29.95S
CAMP DOUGLAS   FOG       54  54 100 E1        29.93S VSB 1/2
VIROQUA        FAIR      61  59  94 SW5       29.96S
WIS DELLS      CLEAR     58  56  91 CALM      29.95S
$$

...ELSEWHERE IN WISCONSIN...


CITY           SKY/WX    TMP DP  RH WIND       PRES   REMARKS
MILWAUKEE      PTCLDY    62  52  69 SW6       29.94S
MADISON        FAIR      58  55  90 CALM      29.95R
GREEN BAY      PTCLDY    62  58  86 SW3       29.90F
EAU CLAIRE     CLEAR     64  56  75 SW7       29.91S
BLACK RVR FLS  PTSUNNY   56  56 100 CALM      29.93S
MEDFORD        PTCLDY    56  55  99 CALM      29.93S
WAUSAU         PTCLDY    64  58  80 CALM      29.91F
WIS RAPIDS     CLEAR     58  55  90 CALM      29.94S
MARSHFIELD     CLEAR     58  54  86 SW3       29.93S
RICE LAKE      FOG       63  61  95 CALM      29.93S VSB<1/4
$$

...NORTHEAST IOWA...


CITY           SKY/WX    TMP DP  RH WIND       PRES   REMARKS
DECORAH          N/A    N/A N/A N/A MISG        N/A
MASON CITY     CLEAR     61  53  75 SW3       29.98S
CHARLES CITY   CLEAR     59  59 100 SW5       29.98S
OELWEIN        CLEAR     59  57  94 SW3       29.98S
$$

...ELSEWHERE IN IOWA...


CITY           SKY/WX    TMP DP  RH WIND       PRES   REMARKS
DES MOINES     PTCLDY    64  57  78 CALM      29.98S
IOWA CITY      CLEAR     59  56  89 CALM      29.99S
FORT DODGE     CLEAR     57  52  82 CALM      29.98F
$$

...NORTHERN ILLINOIS...


CITY           SKY/WX    TMP DP  RH WIND       PRES   REMARKS
CHICAGO-OHARE  PTCLDY    62  54  74 CALM      29.95F
CHICAGO-MIDWAY MOCLDY    65  56  72 CALM      29.95S
MOLINE         CLEAR     60  57  89 CALM      29.97S FOG
ROCKFORD       CLEAR     60  57  89 CALM      29.97S
PEORIA         CLEAR     63  58  83 CALM      29.97S HAZE
$$

NOTE: "FAIR" INDICATES FEW OR NO CLOUDS BELOW 12,000 FEET WITH NO
SIGNIFICANT WEATHER AND/OR OBSTRUCTIONS TO VISIBILITY. WIND
SPEEDS ARE IN MILES-PER-HOUR.



USA.gov is the U.S. government's official web portal to all federal, state and local government web resources and services.